Time,TemperatureF,DewpointF,PressureIn,WindDirection,WindDirectionDegrees,WindSpeedMPH,WindSpeedGustMPH,Humidity,HourlyPrecipIn,Conditions,Clouds,dailyrainin,SoftwareType,DateUTC
2013-01-06 16:03:00,47.0,31.0,29.98,WSW,252,4.0,9.0,53,0.00,,,0.02,,2013-01-06 21:03:00,
2013-01-06 16:12:00,47.0,31.0,29.98,WSW,252,4.0,9.0,53,0.00,,,0.02,,2013-01-06 21:12:00,
2013-01-06 16:22:00,46.0,31.0,29.98,West,269,1.0,6.0,55,0.00,,,0.02,,2013-01-06 21:22:00,
2013-01-06 16:33:00,46.0,31.0,29.98,West,269,1.0,6.0,55,0.00,,,0.02,,2013-01-06 21:33:00,
2013-01-06 16:43:00,46.0,31.0,29.98,West,269,1.0,6.0,55,0.00,,,0.02,,2013-01-06 21:43:00,
2013-01-06 16:53:00,46.0,31.0,29.98,West,267,1.0,5.0,56,0.00,,,0.02,,2013-01-06 21:53:00,
2013-01-06 17:02:00,46.0,31.0,29.98,West,267,1.0,5.0,56,0.00,,,0.02,,2013-01-06 22:02:00,
2013-01-06 17:12:00,46.0,31.0,29.98,West,267,1.0,5.0,56,0.00,,,0.02,,2013-01-06 22:12:00,
2013-01-06 17:22:00,45.0,30.0,29.99,West,261,2.0,6.0,56,0.00,,,0.02,,2013-01-06 22:22:00,
2013-01-06 17:33:00,45.0,30.0,29.99,West,261,2.0,6.0,56,0.00,,,0.02,,2013-01-06 22:33:00,
2013-01-06 17:43:00,45.0,30.0,29.99,West,261,2.0,6.0,56,0.00,,,0.02,,2013-01-06 22:43:00,
2013-01-06 17:53:00,44.0,30.0,30.00,West,261,2.0,4.0,57,0.00,,,0.02,,2013-01-06 22:53:00,
2013-01-06 18:02:00,44.0,30.0,30.00,West,261,2.0,4.0,57,0.00,,,0.02,,2013-01-06 23:02:00,
2013-01-06 18:13:00,44.0,30.0,30.00,West,261,2.0,4.0,57,0.00,,,0.02,,2013-01-06 23:13:00,
2013-01-06 18:22:00,44.0,30.0,30.01,West,261,0.0,4.0,58,0.00,,,0.02,,2013-01-06 23:22:00,
2013-01-06 18:33:00,44.0,30.0,30.01,West,261,0.0,4.0,58,0.00,,,0.02,,2013-01-06 23:33:00,
2013-01-06 18:43:00,44.0,30.0,30.01,West,261,0.0,4.0,58,0.00,,,0.02,,2013-01-06 23:43:00,
2013-01-06 18:53:00,43.0,30.0,30.01,West,261,1.0,4.0,59,0.00,,,0.02,,2013-01-06 23:53:00,
2013-01-06 19:02:00,43.0,30.0,30.01,West,261,1.0,4.0,59,0.00,,,0.02,,2013-01-07 00:02:00,
2013-01-06 19:12:00,43.0,30.0,30.01,West,261,1.0,4.0,59,0.00,,,0.02,,2013-01-07 00:12:00,
2013-01-06 19:23:00,43.0,30.0,30.03,West,261,0.0,0.0,60,0.00,,,0.02,,2013-01-07 00:23:00,
2013-01-06 19:33:00,43.0,30.0,30.03,West,261,0.0,0.0,60,0.00,,,0.02,,2013-01-07 00:33:00,
2013-01-06 19:43:00,43.0,30.0,30.03,West,261,0.0,0.0,60,0.00,,,0.02,,2013-01-07 00:43:00,
2013-01-06 19:53:00,43.0,30.0,30.03,West,275,3.0,10.0,61,0.01,,,0.03,,2013-01-07 00:53:00,
2013-01-06 20:02:00,43.0,30.0,30.03,West,275,3.0,10.0,61,0.01,,,0.03,,2013-01-07 01:02:00,
2013-01-06 20:12:00,43.0,30.0,30.03,West,275,3.0,10.0,61,0.01,,,0.03,,2013-01-07 01:12:00,
2013-01-06 20:23:00,43.0,30.0,30.03,West,277,2.0,9.0,61,0.01,,,0.03,,2013-01-07 01:23:00,
2013-01-06 20:32:00,43.0,30.0,30.03,West,277,2.0,9.0,61,0.01,,,0.03,,2013-01-07 01:32:00,
2013-01-06 20:43:00,43.0,30.0,30.03,West,277,2.0,9.0,61,0.01,,,0.03,,2013-01-07 01:43:00,
2013-01-06 20:53:00,43.0,30.0,30.04,WSW,258,2.0,7.0,61,0.00,,,0.03,,2013-01-07 01:53:00,
2013-01-06 21:02:00,43.0,30.0,30.04,WSW,258,2.0,7.0,61,0.00,,,0.03,,2013-01-07 02:02:00,
2013-01-06 21:12:00,43.0,30.0,30.04,WSW,258,2.0,7.0,61,0.00,,,0.03,,2013-01-07 02:12:00,
2013-01-06 21:23:00,43.0,30.0,30.05,West,280,1.0,8.0,61,0.00,,,0.03,,2013-01-07 02:23:00,
2013-01-06 21:32:00,43.0,30.0,30.05,West,280,1.0,8.0,61,0.00,,,0.03,,2013-01-07 02:32:00,
2013-01-06 21:43:00,43.0,30.0,30.05,West,280,1.0,8.0,61,0.00,,,0.03,,2013-01-07 02:43:00,
2013-01-06 21:53:00,43.0,30.0,30.05,West,280,2.0,5.0,61,0.00,,,0.03,,2013-01-07 02:53:00,
2013-01-06 22:02:00,43.0,30.0,30.05,West,280,2.0,5.0,61,0.00,,,0.03,,2013-01-07 03:02:00,
2013-01-06 22:12:00,43.0,30.0,30.05,West,280,2.0,5.0,61,0.00,,,0.03,,2013-01-07 03:12:00,
2013-01-06 22:23:00,42.0,30.0,30.05,West,280,0.0,5.0,63,0.00,,,0.03,,2013-01-07 03:23:00,
2013-01-06 22:33:00,42.0,30.0,30.05,West,280,0.0,5.0,63,0.00,,,0.03,,2013-01-07 03:33:00,
2013-01-06 22:43:00,42.0,30.0,30.05,West,280,0.0,5.0,63,0.00,,,0.03,,2013-01-07 03:43:00,
2013-01-06 22:53:00,42.0,31.0,30.06,WNW,295,3.0,11.0,64,0.00,,,0.03,,2013-01-07 03:53:00,
2013-01-06 23:02:00,42.0,31.0,30.06,WNW,295,3.0,11.0,64,0.00,,,0.03,,2013-01-07 04:02:00,
2013-01-06 23:13:00,42.0,31.0,30.06,WNW,295,3.0,11.0,64,0.00,,,0.03,,2013-01-07 04:13:00,
2013-01-06 23:22:00,41.0,30.0,30.07,WNW,289,5.0,8.0,65,0.00,,,0.03,,2013-01-07 04:22:00,
2013-01-06 23:32:00,41.0,30.0,30.07,WNW,289,5.0,8.0,65,0.00,,,0.03,,2013-01-07 04:32:00,
2013-01-06 23:42:00,41.0,30.0,30.07,WNW,289,5.0,8.0,65,0.00,,,0.03,,2013-01-07 04:42:00,
2013-01-06 23:52:00,41.0,30.0,30.08,WNW,294,1.0,7.0,65,0.00,,,0.03,,2013-01-07 04:52:00,